[[{"header":{"parameterUnit":"m.s-1","parameterCategory":1,"la1":30.2991,"la2":30.254,"lo1":-89.0895,"lo2":-89.0444,"dy":0.0017,"dx":0.0017,"nx":28,"ny":28,"refTime":"2023-08-27T21:00:00:Z","depth":0,"parameterNumber":2,"parameterNumberName":"U-component_of_WINDS"},"data":[0,0,0,0,0,0,0,0,0,0,0,0,0,0,0,0,0,0,0,0,0,0,0,0,0,0,0,0,0,0,0,0,0,0,0,0,0,0,0,0,0,0,0,0,0,0,0,0,0,0,0,0,0,0,0,0,0,0,-2.8263,-2.8263,0,-2.8254,-2.8254,-2.8254,-2.8129,-2.8126,-2.8122,-2.8119,-2.8113,-2.8116,-2.8118,0,0,0,0,0,0,0,0,0,0,0,0,0,-2.8173,-2.8176,-2.8263,-2.8263,-2.8263,-2.8254,-2.8254,-2.8254,-2.8129,-2.8125,-2.8122,-2.8118,-2.8112,-2.8115,-2.8119,0,0,0,0,0,0,0,0,0,0,0,0,0,-2.8193,-2.8176,-2.8263,-2.82,-2.8194,-2.8254,-2.8254,-2.8254,-2.813,-2.8125,-2.8121,-2.8116,-2.8111,-2.8115,-2.8119,-2.824,0,0,-2.8132,-2.8134,0,0,0,0,0,0,0,0,-2.8192,-2.8197,-2.8209,-2.8204,-2.8198,-2.8188,-2.822,-2.8249,-2.8131,-2.8154,-2.8119,-2.8114,-2.8142,-2.8143,-2.8152,-2.824,-2.824,-2.8132,-2.8135,-2.8136,-2.8138,0,0,0,0,0,0,0,-2.8191,-2.8196,-2.8259,-2.8209,-2.8202,-2.8172,-2.8169,-2.8225,-2.8175,-2.8152,-2.8143,-2.8143,-2.8138,-2.8148,-2.8151,-2.824,-2.8132,-2.8136,-2.8138,-2.814,-2.8425,-2.8429,0,0,0,0,0,0,-2.8198,-2.8196,-2.826,-2.8259,-2.8183,-2.8177,-2.8175,-2.8196,-2.8174,-2.8166,-2.8148,-2.8138,-2.8143,-2.8146,-2.815,-2.8289,-2.8136,-2.814,-2.8143,-2.842,-2.8426,-2.8431,0,0,0,0,0,0,-2.8197,-2.8205,-2.826,-2.8225,-2.823,-2.8184,-2.8209,-2.8198,-2.8208,-2.8171,-2.8161,-2.8167,-2.814,-2.8144,-2.8218,-2.8287,-2.8142,-2.8146,-2.8414,-2.8422,-2.8428,-2.857,0,0,0,0,0,0,-2.8195,-2.8205,-2.8251,-2.8227,-2.8232,-2.8329,-2.8213,-2.8201,-2.8216,-2.8203,-2.8187,-2.818,-2.8136,-2.8213,-2.8222,-2.8291,-2.8149,-2.8407,-2.8417,-2.8426,-2.8559,-2.8581,-2.8601,0,0,0,0,0,-2.8192,-2.8292,-2.8254,-2.8262,-2.8288,-2.8333,-2.8336,-2.8283,-2.8222,-2.8267,-2.8242,-2.818,-2.8278,-2.8221,-2.8231,-2.8302,-2.8403,-2.8414,-2.8425,-2.855,-2.8577,-2.86,0,0,0,0,0,0,-2.8327,-2.8288,-2.8245,-2.834,-2.8341,-2.8312,-2.8367,-2.8314,-2.8333,-2.832,-2.8255,-2.8252,-2.8336,-2.8326,-2.8263,-2.8417,-2.8329,-2.8343,-2.8421,-2.8446,-2.8467,-2.8467,-2.8153,0,0,0,0,0,-2.8367,-2.8406,-2.837,-2.8458,-2.846,-2.8414,-2.8432,-2.8391,-2.8389,-2.8389,-2.837,-2.8371,-2.8401,-2.8423,-2.845,-2.8557,-2.8551,-2.861,-2.8631,-2.8648,-2.8661,-2.8716,-2.8741,-2.8469,-2.8468,-2.8468,0,0,-2.8452,-2.8436,-2.8465,-2.8485,-2.848,-2.8522,-2.8415,-2.8464,-2.8495,-2.8396,-2.8464,-2.8451,-2.8447,-2.8538,-2.8577,-2.8532,-2.8735,-2.8663,-2.8677,-2.868,-2.873,-2.8756,-2.8779,-2.8476,-2.8475,-2.8474,0,0,-2.8628,-2.862,-2.8691,-2.8688,-2.8681,-2.865,-2.8667,-2.8645,-2.8632,-2.8699,-2.8626,-2.8661,-2.8716,-2.8716,-2.8724,-2.8897,-2.884,-2.8908,-2.9017,-2.9071,-2.9093,-2.9111,-2.9173,-2.9196,-2.8921,-2.8921,-2.8921,0,-2.8734,-2.8794,-2.8734,-2.8788,-2.8798,-2.871,-2.8781,-2.8781,-2.8785,-2.8795,-2.8744,-2.881,-2.8801,-2.889,-2.8932,-2.8942,-2.8959,-2.8909,-2.9094,-2.9112,-2.9129,-2.9187,-2.921,-2.8929,-2.8928,-2.8928,-2.8927,0,-2.8924,-2.8967,-2.9025,-2.9029,-2.9046,-2.9108,-2.9058,-2.9083,-2.9041,-2.9014,-2.9083,-2.907,-2.9091,-2.9109,-2.9069,-2.9192,-2.9165,-2.9106,-2.9016,-2.9164,-2.9217,-2.9239,-2.8941,-2.8938,-2.8936,-2.8934,0,0,-2.9186,-2.9154,-2.9177,-2.9176,-2.9162,-2.9194,-2.9252,-2.9271,-2.9294,-2.9299,-2.9345,-2.9393,-2.9337,-2.9346,-2.9305,-2.9353,-2.949,-2.9287,-2.9286,-2.9325,-2.9624,-2.9668,-2.9695,-2.9452,-2.9456,-2.9459,-2.9624,0,-2.9355,-2.9451,-2.9398,-2.9502,-2.954,-2.9455,-2.9505,-2.9502,-2.9479,-2.9508,-2.9482,-2.9517,-2.9441,-2.9446,-2.9489,-2.9464,-2.9549,-2.9451,-2.9495,-2.9497,-2.9498,-2.9722,-2.977,-2.9926,-2.9644,-2.9648,-2.965,0,-2.9565,-2.9576,-2.9684,-2.966,-2.9674,-2.972,-2.9733,-2.9762,-2.9756,-2.9736,-2.9745,-2.9692,-2.9747,-2.9659,-2.9734,-2.9669,-2.9683,-2.9674,-2.9678,-2.968,-2.9583,-2.973,-2.9974,-2.9998,-2.9682,-2.968,-2.9677,0,-2.9744,-2.9787,-2.9856,-2.9858,-2.9833,-2.9867,-2.9859,-2.9848,-2.9863,-2.9874,-2.9883,-2.9902,-2.9912,-2.9928,-2.9881,-2.9821,-2.9962,-2.987,-2.9947,-2.9948,-2.998,-2.9979,-3.023,-2.9991,-2.9991,-2.999,-2.999,0,-2.9937,-3.0006,-2.9935,-2.9978,-3.0052,-2.9991,-3.0066,-3.0048,-3.0039,-3.0077,-3.0006,-3.0043,-2.9979,-3.001,-2.9974,-3.0041,-3.0047,-3.0032,-3.0021,-3.0038,-3.004,-3.0046,-3.0034,-2.9996,-2.9995,-2.9994,-2.9993,0,-3.015,-3.0106,-3.0175,-3.0144,-3.0138,-3.0194,-3.0168,-3.0207,-3.0178,-3.0226,-3.0234,-3.0189,-3.0222,-3.0176,-3.0205,-3.018,-3.0272,-3.0246,-3.0274,-3.0266,-3.0345,-3.0338,-3.0609,-3.0641,-3.0382,-3.0385,-3.0387,0,-3.0277,-3.0327,-3.0301,-3.032,-3.0315,-3.0348,-3.0361,-3.0303,-3.032,-3.0317,-3.0355,-3.0381,-3.0399,-3.0455,-3.0425,-3.0446,-3.0419,-3.0513,-3.0422,-3.0437,-3.042,-3.0417,-3.0421,-3.0531,-3.0535,-3.0537,-3.0539,0,-3.0505,-3.048,-3.0502,-3.0516,-3.0534,-3.0543,-3.0547,-3.0567,-3.0505,-3.0528,-3.0559,-3.0573,-3.0601,-3.0627,-3.064,-3.0632,-3.0576,-3.0568,-3.0586,-3.0604,-3.0618,-3.061,-3.0324,-3.0562,-3.056,-3.0558,-3.0557,-3.0556,-3.0678,-3.0718,-3.0705,-3.0732,-3.0728,-3.0732,-3.0766,-3.074,-3.0765,-3.0782,-3.0746,-3.0786,-3.0778,-3.0789,-3.0787,-3.0817,-3.0777,-3.0804,-3.0811,-3.0818,-3.083,-3.0613,-3.082,-3.0819,-3.0818,-3.0818,-3.0817,0,-3.0902,-3.0889,-3.0914,-3.092,-3.0941,-3.0884,-3.0885,-3.0906,-3.0942,-3.0938,-3.0956,-3.0992,-3.1017,-3.0989,-3.1009,-3.1039,-3.1013,-3.1046,-3.1043,-3.1042,-3.0866,-3.0847,-3.1066,-3.1066,-3.1066,-3.1066,-3.1066,-3.1066,-3.1021,-3.1085,-3.1059,-3.112,-3.1106,-3.1144,-3.1149,-3.1152,-3.1149,-3.1191,-3.1211,-3.1192,-3.1178,-3.1196,-3.1217,-3.1208,-3.1218,-3.126,-3.1242,-3.1079,-3.1054,-3.1031,-3.1013,-3.1263,-3.1263,-3.1415,-3.1416,-3.1418]},{"header":{"parameterUnit":"m.s-1","parameterCategory":1,"la1":30.2991,"la2":30.254,"lo1":-89.0895,"lo2":-89.0444,"dy":0.0017,"dx":0.0017,"nx":28,"ny":28,"refTime":"2023-08-27T21:00:00:Z","depth":0,"parameterNumber":3,"parameterNumberName":"V-component_of_WINDS"},"data":[0,0,0,0,0,0,0,0,0,0,0,0,0,0,0,0,0,0,0,0,0,0,0,0,0,0,0,0,0,0,0,0,0,0,0,0,0,0,0,0,0,0,0,0,0,0,0,0,0,0,0,0,0,0,0,0,0,0,-2.7378,-2.7377,0,-2.7343,-2.7342,-2.7342,-2.7301,-2.7301,-2.73,-2.73,-2.7263,-2.7263,-2.7262,0,0,0,0,0,0,0,0,0,0,0,0,0,-2.7407,-2.7407,-2.7378,-2.7377,-2.7377,-2.7343,-2.7342,-2.7342,-2.7301,-2.7301,-2.73,-2.7299,-2.7263,-2.7263,-2.7262,0,0,0,0,0,0,0,0,0,0,0,0,0,-2.7385,-2.7406,-2.7378,-2.7353,-2.735,-2.7343,-2.7342,-2.7342,-2.7302,-2.7301,-2.73,-2.7299,-2.7263,-2.7263,-2.7262,-2.7277,0,0,-2.726,-2.726,0,0,0,0,0,0,0,0,-2.7387,-2.7384,-2.7357,-2.7354,-2.7351,-2.7325,-2.7339,-2.732,-2.7302,-2.732,-2.73,-2.7298,-2.7285,-2.7282,-2.7278,-2.7275,-2.7274,-2.726,-2.726,-2.726,-2.726,0,0,0,0,0,0,0,-2.7388,-2.7386,-2.7364,-2.7356,-2.7353,-2.7342,-2.7338,-2.7335,-2.7308,-2.7318,-2.7315,-2.7312,-2.7283,-2.7278,-2.7277,-2.7273,-2.726,-2.726,-2.726,-2.7259,-2.7278,-2.7278,0,0,0,0,0,0,-2.7394,-2.7387,-2.7365,-2.7363,-2.7367,-2.7342,-2.7338,-2.7335,-2.7308,-2.7303,-2.7313,-2.731,-2.728,-2.7277,-2.7275,-2.7288,-2.726,-2.7259,-2.7259,-2.7277,-2.7278,-2.7279,0,0,0,0,0,0,-2.7394,-2.7392,-2.7366,-2.7374,-2.737,-2.7343,-2.734,-2.7334,-2.733,-2.7303,-2.7298,-2.7313,-2.7279,-2.7276,-2.7276,-2.7286,-2.7259,-2.7258,-2.7276,-2.7277,-2.7278,-2.7316,0,0,0,0,0,0,-2.7395,-2.7393,-2.7399,-2.7374,-2.737,-2.7369,-2.734,-2.7334,-2.7329,-2.7325,-2.7302,-2.7298,-2.7278,-2.7277,-2.7275,-2.7285,-2.7258,-2.7275,-2.7276,-2.7278,-2.7314,-2.7318,-2.7322,0,0,0,0,0,-2.7397,-2.7411,-2.7399,-2.7397,-2.7377,-2.737,-2.7367,-2.7344,-2.733,-2.7335,-2.7318,-2.7298,-2.7286,-2.7278,-2.7275,-2.7285,-2.7274,-2.7276,-2.7278,-2.7312,-2.7317,-2.7322,0,0,0,0,0,0,-2.7438,-2.7408,-2.7394,-2.7401,-2.7388,-2.7363,-2.7369,-2.7351,-2.7342,-2.7338,-2.731,-2.7305,-2.7308,-2.7297,-2.7288,-2.7296,-2.7277,-2.7278,-2.7303,-2.7309,-2.7313,-2.7315,-2.7257,0,0,0,0,0,-2.7448,-2.7445,-2.7418,-2.7427,-2.7421,-2.7396,-2.7392,-2.7376,-2.7361,-2.7355,-2.7338,-2.7324,-2.7316,-2.7312,-2.7304,-2.7312,-2.7305,-2.7317,-2.7321,-2.7325,-2.7326,-2.7327,-2.7331,-2.7285,-2.7285,-2.7285,0,0,-2.7468,-2.7451,-2.7451,-2.7435,-2.7423,-2.7419,-2.7392,-2.739,-2.7387,-2.7355,-2.7353,-2.734,-2.7322,-2.7326,-2.7326,-2.7316,-2.7338,-2.7327,-2.7331,-2.733,-2.7329,-2.7334,-2.7338,-2.7286,-2.7286,-2.7286,0,0,-2.7503,-2.7491,-2.7496,-2.7484,-2.7465,-2.7448,-2.7449,-2.7426,-2.7416,-2.7414,-2.7389,-2.7384,-2.7373,-2.736,-2.7352,-2.738,-2.7361,-2.7378,-2.74,-2.7401,-2.7405,-2.7408,-2.7416,-2.7419,-2.738,-2.738,-2.738,0,-2.7531,-2.7525,-2.7501,-2.7499,-2.7492,-2.7462,-2.7466,-2.7455,-2.7436,-2.7431,-2.7419,-2.7402,-2.7388,-2.7387,-2.7393,-2.7389,-2.7388,-2.738,-2.7407,-2.7409,-2.7412,-2.7419,-2.7422,-2.7382,-2.7382,-2.7381,-2.7381,0,-2.7559,-2.7555,-2.7561,-2.7541,-2.7535,-2.7536,-2.7511,-2.7507,-2.749,-2.7474,-2.7471,-2.7453,-2.7439,-2.7438,-2.7422,-2.7433,-2.7427,-2.7412,-2.7392,-2.7419,-2.7425,-2.7427,-2.7385,-2.7384,-2.7383,-2.7383,0,0,-2.7619,-2.7585,-2.7587,-2.7577,-2.7554,-2.755,-2.7549,-2.7535,-2.7531,-2.7518,-2.7515,-2.7505,-2.749,-2.7481,-2.7463,-2.7464,-2.7484,-2.7448,-2.7447,-2.7453,-2.7492,-2.7503,-2.7507,-2.7472,-2.7472,-2.7472,-2.7493,0,-2.7648,-2.7645,-2.7622,-2.7625,-2.762,-2.7591,-2.759,-2.7574,-2.7559,-2.7551,-2.7533,-2.7525,-2.7507,-2.7501,-2.7501,-2.7482,-2.7491,-2.748,-2.7467,-2.7467,-2.7471,-2.751,-2.7522,-2.7543,-2.7496,-2.7496,-2.7496,0,-2.7683,-2.767,-2.7673,-2.7647,-2.7644,-2.7644,-2.7628,-2.7622,-2.7603,-2.7591,-2.758,-2.756,-2.7555,-2.7537,-2.7529,-2.7522,-2.7515,-2.7505,-2.7505,-2.7502,-2.7482,-2.7507,-2.7549,-2.7552,-2.75,-2.75,-2.75,0,-2.7724,-2.7708,-2.7707,-2.7699,-2.767,-2.767,-2.7657,-2.7638,-2.763,-2.7616,-2.7611,-2.7597,-2.7589,-2.7578,-2.7553,-2.7543,-2.7547,-2.7528,-2.7536,-2.7536,-2.7538,-2.7538,-2.7578,-2.7536,-2.7536,-2.7536,-2.7536,0,-2.7758,-2.776,-2.7725,-2.7724,-2.7724,-2.7697,-2.7698,-2.7683,-2.7665,-2.766,-2.7634,-2.7629,-2.7598,-2.7589,-2.757,-2.7565,-2.7562,-2.7551,-2.7546,-2.7553,-2.7554,-2.7547,-2.7545,-2.7537,-2.7536,-2.7536,-2.7536,0,-2.7804,-2.7781,-2.7777,-2.7749,-2.7742,-2.7743,-2.7719,-2.7716,-2.7698,-2.7691,-2.7688,-2.7659,-2.7647,-2.7622,-2.7603,-2.759,-2.7589,-2.7581,-2.7595,-2.7592,-2.76,-2.7599,-2.7637,-2.7639,-2.7597,-2.7598,-2.7598,0,-2.7827,-2.7828,-2.7799,-2.7794,-2.7782,-2.7774,-2.7766,-2.7738,-2.7731,-2.7708,-2.7707,-2.7693,-2.768,-2.7662,-2.7639,-2.7624,-2.7614,-2.7628,-2.7611,-2.7617,-2.7611,-2.7611,-2.761,-2.7631,-2.7632,-2.7632,-2.7633,0,-2.787,-2.7857,-2.7847,-2.7831,-2.7822,-2.7809,-2.7794,-2.7791,-2.7759,-2.7752,-2.7739,-2.7729,-2.7709,-2.7694,-2.7675,-2.7661,-2.7641,-2.7638,-2.7639,-2.7645,-2.7653,-2.7647,-2.7604,-2.7637,-2.7637,-2.7636,-2.7636,-2.7636,-2.7903,-2.7902,-2.7881,-2.7869,-2.7855,-2.7841,-2.7836,-2.7817,-2.7806,-2.7787,-2.7772,-2.776,-2.7738,-2.771,-2.7697,-2.7687,-2.7677,-2.7679,-2.7679,-2.7679,-2.7681,-2.7655,-2.7683,-2.7683,-2.7683,-2.7683,-2.7683,0,-2.7942,-2.7927,-2.7917,-2.7896,-2.7886,-2.7869,-2.7851,-2.7843,-2.7833,-2.7815,-2.7803,-2.7786,-2.7772,-2.7747,-2.7729,-2.7725,-2.7716,-2.7722,-2.7721,-2.7717,-2.7692,-2.7692,-2.773,-2.773,-2.773,-2.773,-2.773,-2.773,-2.7962,-2.7957,-2.7942,-2.7929,-2.7914,-2.7902,-2.7893,-2.7879,-2.7864,-2.7847,-2.7835,-2.7819,-2.7797,-2.7778,-2.7762,-2.7755,-2.7749,-2.7758,-2.7748,-2.7724,-2.772,-2.7715,-2.7715,-2.7757,-2.7757,-2.7774,-2.7774,-2.7775]}]]